Weather History for Newberry, SC

Change the Weather History Date:

Wednesday, December 11, 2013

  Actual Average (KFDW) Record (KFDW)
Temperature  
Mean Temperature 40 °F -  
Max Temperature 51 °F 56 °F 60 °F (2012)
Min Temperature 28 °F 35 °F 28 °F (2013)
Degree Days  
Heating Degree Days 26    
Moisture  
Dew Point 31 °F    
Average Humidity 77    
Maximum Humidity 100    
Minimum Humidity 41    
Precipitation  
Precipitation 0.00 in - - ()
Sea Level Pressure  
Sea Level Pressure 30.39 in    
Wind  
Wind Speed 2 mph (SW)    
Max Wind Speed 6 mph    
Max Gust Speed -    
Visibility 10 miles    
Events      
Averages and records for this station are not official NWS values.
T = Trace of Precipitation, MM = Missing Value Source: NWS Daily Summary

Daily Weather History Graph

Daily Weather History Graph

Search for Another Location

Airport:

Trip Planner

Search our weather history database for the weather conditions in past years. The results will help you decide how hot, cold, wet, or windy it might be!

Date:

Astronomy

Dec. 11, 2013 Rise Set
Actual Time 7:22 AM EST 5:17 PM EST
Civil Twilight 6:55 AM EST 5:44 PM EST
Nautical Twilight 6:23 AM EST 6:16 PM EST
Astronomical Twilight 5:53 AM EST 6:46 PM EST
Moon 1:39 PM EST (12/11) 1:54 AM EST (12/11)
Length of Visible Light 10h 49m
Length of Day
9h 54m
Waxing Gibbous, 71% of the Moon is Illuminated
Dec 11
Waxing Gibbous
Dec 17
Full
Dec 25
Last Quarter
Jan 1
New
Jan 7
First Quarter

Hourly Weather History & Observations

Time (EST) Temp. Windchill Dew Point Humidity Pressure Visibility Wind Dir Wind Speed Gust Speed Precip Events Conditions
12:15 AM 32.0 °F - 28.4 °F 87% 30.37 in 10.0 mi Calm Calm - N/A   Clear
12:35 AM 32.0 °F 28.7 °F 30.2 °F 93% 30.38 in 10.0 mi NNE 3.5 mph - N/A   Clear
12:55 AM 32.0 °F 27.5 °F 30.2 °F 93% 30.37 in 10.0 mi NNE 4.6 mph - N/A   Clear
1:35 AM 30.2 °F 26.7 °F 30.2 °F 100% 30.36 in 10.0 mi ENE 3.5 mph - N/A   Clear
1:55 AM 30.2 °F - 30.2 °F 100% 30.36 in 10.0 mi Calm Calm - N/A   Clear
2:15 AM 30.2 °F 25.4 °F 30.2 °F 100% 30.36 in 10.0 mi NE 4.6 mph - N/A   Clear
2:35 AM 30.2 °F - 30.2 °F 100% 30.37 in 10.0 mi Calm Calm - N/A   Clear
2:55 AM 30.2 °F - 30.2 °F 100% 30.37 in 10.0 mi Calm Calm - N/A   Clear
3:35 AM 28.4 °F 24.6 °F 28.4 °F 100% 30.39 in 10.0 mi WSW 3.5 mph - N/A   Clear
3:55 AM 30.2 °F - 30.2 °F 100% 30.39 in 10.0 mi Calm Calm - N/A   Clear
4:15 AM 30.2 °F 26.7 °F 30.2 °F 100% 30.39 in 10.0 mi North 3.5 mph - N/A   Clear
4:35 AM 28.4 °F 23.3 °F 28.4 °F 100% 30.40 in 10.0 mi North 4.6 mph - N/A   Clear
4:55 AM 30.2 °F 24.3 °F 28.4 °F 93% 30.40 in 10.0 mi NNE 5.8 mph - N/A   Clear
5:15 AM 28.4 °F 22.2 °F 28.4 °F 100% 30.41 in 10.0 mi NNE 5.8 mph - N/A   Clear
5:35 AM 30.2 °F 25.4 °F 28.4 °F 93% 30.42 in 10.0 mi NNE 4.6 mph - N/A   Clear
6:15 AM 28.4 °F - 28.4 °F 100% 30.44 in 10.0 mi Calm Calm - N/A   Clear
6:35 AM 28.4 °F 23.3 °F 28.4 °F 100% 30.44 in 10.0 mi North 4.6 mph - N/A   Clear
6:55 AM 28.4 °F 24.6 °F 28.4 °F 100% 30.44 in 10.0 mi North 3.5 mph - N/A   Clear
7:15 AM 28.4 °F - 28.4 °F 100% 30.45 in 10.0 mi Calm Calm - N/A   Clear
7:35 AM 28.4 °F - 28.4 °F 100% 30.45 in 10.0 mi Calm Calm - N/A   Clear
7:55 AM 28.4 °F - 28.4 °F 100% 30.46 in 10.0 mi Calm Calm - N/A   Clear
8:15 AM 30.2 °F - 28.4 °F 93% 30.46 in 10.0 mi Calm Calm - N/A   Clear
8:35 AM 32.0 °F - 30.2 °F 93% 30.46 in 10.0 mi Calm Calm - N/A   Clear
8:55 AM 33.8 °F - 32.0 °F 93% 30.47 in 10.0 mi Calm Calm - N/A   Clear
9:15 AM 37.4 °F - 32.0 °F 81% 30.47 in 10.0 mi Calm Calm - N/A   Clear
9:55 AM 42.8 °F 40.1 °F 28.4 °F 57% 30.48 in 10.0 mi SE 4.6 mph - N/A   Clear
10:15 AM 42.8 °F 41.1 °F 28.4 °F 57% 30.48 in 10.0 mi ESE 3.5 mph - N/A   Clear
10:35 AM 44.6 °F 41.4 °F 26.6 °F 49% 30.48 in 10.0 mi ESE 5.8 mph - N/A   Clear
10:55 AM 44.6 °F 42.2 °F 26.6 °F 49% 30.47 in 10.0 mi East 4.6 mph - N/A   Clear
11:15 AM 44.6 °F 43.1 °F 26.6 °F 49% 30.47 in 10.0 mi SSW 3.5 mph - N/A   Clear
11:35 AM 46.4 °F 45.2 °F 28.4 °F 50% 30.46 in 10.0 mi SSE 3.5 mph - N/A   Clear
11:55 AM 48.2 °F - 28.4 °F 46% 30.44 in 10.0 mi SW 4.6 mph - N/A   Clear
12:35 PM 50.0 °F - 28.4 °F 43% 30.42 in 10.0 mi SSW 4.6 mph - N/A   Clear
12:55 PM 50.0 °F - 28.4 °F 43% 30.40 in 10.0 mi Calm Calm - N/A   Clear
1:15 PM 50.0 °F - 28.4 °F 43% 30.39 in 10.0 mi Calm Calm - N/A   Clear
1:35 PM 51.8 °F - 28.4 °F 41% 30.39 in 10.0 mi WSW 3.5 mph - N/A   Clear
1:55 PM 51.8 °F - 28.4 °F 41% 30.37 in 10.0 mi West 4.6 mph - N/A   Clear
2:15 PM 51.8 °F - 28.4 °F 41% 30.37 in 10.0 mi Calm Calm - N/A   Clear
2:35 PM 51.8 °F - 30.2 °F 44% 30.37 in 10.0 mi West 5.8 mph - N/A   Clear
2:55 PM 51.8 °F - 30.2 °F 44% 30.37 in 10.0 mi NW 3.5 mph - N/A   Clear
3:15 PM 51.8 °F - 30.2 °F 44% 30.36 in 10.0 mi Calm Calm - N/A   Clear
3:35 PM 51.8 °F - 30.2 °F 44% 30.36 in 10.0 mi West 5.8 mph - N/A   Clear
4:15 PM 51.8 °F - 30.2 °F 44% 30.36 in 10.0 mi Calm Calm - N/A   Clear
4:35 PM 51.8 °F - 30.2 °F 44% 30.36 in 10.0 mi WSW 3.5 mph - N/A   Clear
4:55 PM 50.0 °F - 32.0 °F 50% 30.36 in 10.0 mi Calm Calm - N/A   Clear
5:15 PM 46.4 °F 45.2 °F 32.0 °F 57% 30.36 in 10.0 mi WSW 3.5 mph - N/A   Clear
5:35 PM 44.6 °F - 33.8 °F 66% 30.36 in 10.0 mi Calm Calm - N/A   Clear
5:55 PM 42.8 °F 41.1 °F 35.6 °F 76% 30.36 in 10.0 mi SW 3.5 mph - N/A   Mostly Cloudy
6:15 PM 42.8 °F 41.1 °F 35.6 °F 76% 30.36 in 10.0 mi SSW 3.5 mph - N/A   Scattered Clouds
6:35 PM 42.8 °F 41.1 °F 35.6 °F 76% 30.36 in 10.0 mi SSW 3.5 mph - N/A   Scattered Clouds
6:55 PM 42.8 °F - 37.4 °F 81% 30.37 in 10.0 mi Calm Calm - N/A   Scattered Clouds
7:15 PM 42.8 °F - 35.6 °F 76% 30.37 in 10.0 mi Calm Calm - N/A   Scattered Clouds
7:35 PM 42.8 °F 41.1 °F 33.8 °F 70% 30.36 in 10.0 mi SSW 3.5 mph - N/A   Clear
7:55 PM 42.8 °F - 35.6 °F 76% 30.36 in 10.0 mi Calm Calm - N/A   Clear
8:15 PM 41.0 °F - 35.6 °F 81% 30.36 in 10.0 mi Calm Calm - N/A   Clear
8:35 PM 41.0 °F - 37.4 °F 87% 30.36 in 10.0 mi Calm Calm - N/A   Clear
8:55 PM 39.2 °F - 35.6 °F 87% 30.36 in 10.0 mi Calm Calm - N/A   Clear
9:15 PM 37.4 °F 34.9 °F 35.6 °F 93% 30.35 in 10.0 mi SW 3.5 mph - N/A   Clear
9:35 PM 37.4 °F 33.8 °F 35.6 °F 93% 30.35 in 10.0 mi SW 4.6 mph - N/A   Clear
9:55 PM 35.6 °F 32.8 °F 35.6 °F 100% 30.35 in 10.0 mi SW 3.5 mph - N/A   Clear
10:35 PM 37.4 °F 33.8 °F 35.6 °F 93% 30.35 in 10.0 mi SSW 4.6 mph - N/A   Clear
10:55 PM 35.6 °F 32.8 °F 35.6 °F 100% 30.34 in 10.0 mi SSW 3.5 mph - N/A   Clear
11:15 PM 35.6 °F 32.8 °F 35.6 °F 100% 30.34 in 10.0 mi SSW 3.5 mph - N/A   Clear
11:35 PM 33.8 °F - 33.8 °F 100% 30.34 in 10.0 mi Calm Calm - N/A   Clear
11:55 PM 35.6 °F 31.7 °F 35.6 °F 100% 30.32 in 10.0 mi SW 4.6 mph - N/A   Clear